User: anonymous   Login
Location: Caltech
(34.1382°N, 118.1253°W)
Time: 09:00:26
(UTC-07:00)
Language:

Gbstr 26 Del rocket - Orbit

View from above orbital plane
View from above orbital plane
View from above satellite
View from above satellite

Ground track
Ground track

The orbit data is extracted from the following two-line orbital elements,

1 25876U 99041E   16243.33248945  .00000060  00000-0  49777-4 0  9999
2 25876  51.7692  24.2198 0531797 260.4579  93.5895 14.03857725873752
Epoch (UTC): 30 August 2016 07:58:47
Eccentricity: 0.0531797
inclination: 51.7692°
perigee height: 494 km
apogee height: 1266 km
right ascension of ascending node: 24.2198°
argument of perigee: 260.4579°
revolutions per day: 14.03857725
mean anomaly at epoch: 93.5895°
orbit number at epoch: 87375

The dashed part of the orbit path shows where the satellite is in the earth's shadow,  

DLR